[[{"header":{"parameterUnit":"m.s-1","parameterCategory":2,"la1":30.2991,"la2":30.254,"lo1":-89.0895,"lo2":-89.0444,"dy":0.0017,"dx":0.0017,"nx":28,"ny":28,"refTime":"2025-12-21T09:00:00:Z","depth":"0","parameterNumber":2,"parameterNumberName":"U-component_of_CURRENTS"},"data":[0,0,0,0,0,0,0,0,0,0,0,0,0,0,0,0,0,0,0,0,0,0,0,0,0,0,0,0,0,0,0,0,0,0,0,0,0,0,0,0,0,0,0,0,0,0,0,0,0,0,0,0,0,0,0,0,0,0,-0.2564,-0.2564,0,-0.2613,-0.2614,-0.2614,-0.2586,-0.2585,-0.2584,-0.2582,-0.2556,-0.2557,-0.2557,0,0,0,0,0,0,0,0,0,0,0,0,0,-0.2458,-0.246,-0.2564,-0.2564,-0.2565,-0.2613,-0.2614,-0.2614,-0.2586,-0.2585,-0.2583,-0.2582,-0.2556,-0.2557,-0.2557,0,0,0,0,0,0,0,0,0,0,0,0,0,-0.2503,-0.2461,-0.2563,-0.2559,-0.2559,-0.2613,-0.2614,-0.2614,-0.2586,-0.2585,-0.2583,-0.2581,-0.2556,-0.2557,-0.2557,-0.2596,0,0,-0.2559,-0.2559,0,0,0,0,0,0,0,0,-0.2501,-0.2507,-0.2559,-0.2559,-0.256,-0.2594,-0.2567,-0.2605,-0.2587,-0.2573,-0.2582,-0.258,-0.2565,-0.2564,-0.2575,-0.2595,-0.2593,-0.2559,-0.2559,-0.256,-0.256,0,0,0,0,0,0,0,-0.2498,-0.2505,-0.2581,-0.256,-0.256,-0.2559,-0.2563,-0.2575,-0.2575,-0.2574,-0.2573,-0.2583,-0.2564,-0.2575,-0.2574,-0.2593,-0.2559,-0.2559,-0.256,-0.256,-0.2642,-0.2644,0,0,0,0,0,0,-0.2498,-0.2502,-0.2579,-0.2583,-0.2528,-0.2563,-0.2567,-0.2583,-0.2576,-0.2575,-0.2585,-0.2582,-0.2575,-0.2574,-0.2573,-0.2615,-0.256,-0.256,-0.256,-0.264,-0.2642,-0.2644,0,0,0,0,0,0,-0.2496,-0.2505,-0.2577,-0.2545,-0.2554,-0.2567,-0.2584,-0.2585,-0.2589,-0.2585,-0.2582,-0.2587,-0.2573,-0.2572,-0.2589,-0.2613,-0.256,-0.2561,-0.2638,-0.2641,-0.2643,-0.2699,0,0,0,0,0,0,-0.2493,-0.2504,-0.251,-0.2545,-0.2556,-0.2614,-0.2586,-0.2587,-0.2599,-0.2595,-0.2587,-0.2583,-0.2572,-0.2588,-0.2589,-0.2613,-0.2561,-0.2636,-0.2639,-0.2642,-0.2695,-0.2704,-0.2711,0,0,0,0,0,-0.2489,-0.251,-0.251,-0.2519,-0.2566,-0.2615,-0.2621,-0.2621,-0.2601,-0.2615,-0.2609,-0.2583,-0.261,-0.259,-0.2591,-0.2615,-0.2634,-0.2638,-0.2642,-0.2692,-0.2702,-0.2711,0,0,0,0,0,0,-0.2466,-0.251,-0.2511,-0.2543,-0.2577,-0.2611,-0.2622,-0.2625,-0.2634,-0.2622,-0.2607,-0.2605,-0.263,-0.2621,-0.2599,-0.2651,-0.2618,-0.2623,-0.2656,-0.2665,-0.2673,-0.2662,-0.2562,0,0,0,0,0,-0.2466,-0.2489,-0.2534,-0.2556,-0.2575,-0.2598,-0.2614,-0.2622,-0.2638,-0.2639,-0.2637,-0.2637,-0.2652,-0.2654,-0.2665,-0.2694,-0.2668,-0.2712,-0.272,-0.2726,-0.272,-0.2712,-0.2717,-0.2658,-0.2658,-0.2658,0,0,-0.246,-0.2489,-0.2499,-0.2552,-0.2573,-0.2618,-0.2602,-0.2636,-0.2667,-0.2636,-0.2665,-0.2665,-0.2668,-0.2701,-0.2711,-0.2692,-0.2732,-0.2731,-0.2737,-0.2727,-0.2716,-0.2722,-0.2727,-0.2661,-0.266,-0.266,0,0,-0.2474,-0.249,-0.2518,-0.2556,-0.2602,-0.2626,-0.2637,-0.2678,-0.2686,-0.2726,-0.2711,-0.2724,-0.2748,-0.2754,-0.276,-0.282,-0.2776,-0.2827,-0.2854,-0.2846,-0.285,-0.2854,-0.283,-0.283,-0.2828,-0.2828,-0.2828,0,-0.2463,-0.2509,-0.2534,-0.2582,-0.2611,-0.2632,-0.2677,-0.2704,-0.2743,-0.2752,-0.2739,-0.2775,-0.2775,-0.281,-0.2831,-0.2836,-0.2815,-0.2815,-0.2854,-0.2857,-0.2859,-0.2834,-0.2834,-0.2831,-0.2831,-0.283,-0.283,0,-0.2507,-0.2546,-0.2568,-0.2632,-0.267,-0.2711,-0.2759,-0.2787,-0.2796,-0.2815,-0.2847,-0.2852,-0.2864,-0.2878,-0.2872,-0.2899,-0.2874,-0.2865,-0.2823,-0.2868,-0.2839,-0.2838,-0.2836,-0.2835,-0.2834,-0.2833,0,0,-0.2472,-0.2578,-0.2582,-0.2617,-0.2698,-0.2731,-0.2792,-0.2846,-0.2866,-0.2897,-0.2918,-0.2954,-0.2936,-0.2942,-0.2937,-0.2935,-0.2939,-0.2907,-0.2906,-0.2872,-0.2907,-0.2834,-0.2825,-0.2932,-0.2933,-0.2933,-0.288,0,-0.2493,-0.258,-0.2632,-0.2704,-0.2751,-0.2798,-0.2851,-0.2898,-0.2924,-0.295,-0.2957,-0.2974,-0.2968,-0.2965,-0.2968,-0.2948,-0.2938,-0.2953,-0.2879,-0.2877,-0.2796,-0.2822,-0.2711,-0.2649,-0.2879,-0.2879,-0.2878,0,-0.2511,-0.257,-0.2647,-0.2737,-0.276,-0.2805,-0.2869,-0.2918,-0.2968,-0.2984,-0.3002,-0.3002,-0.3015,-0.2994,-0.2976,-0.2983,-0.2947,-0.2926,-0.2924,-0.283,-0.2801,-0.2644,-0.2638,-0.2615,-0.2876,-0.2876,-0.2876,0,-0.246,-0.257,-0.2625,-0.266,-0.2772,-0.2802,-0.285,-0.2915,-0.2948,-0.2988,-0.3003,-0.3022,-0.3015,-0.2995,-0.296,-0.2964,-0.2921,-0.292,-0.2819,-0.2812,-0.2689,-0.2671,-0.2638,-0.2892,-0.2893,-0.2893,-0.2893,0,-0.2456,-0.2495,-0.2601,-0.2632,-0.2682,-0.2768,-0.2813,-0.2862,-0.2927,-0.2949,-0.2999,-0.3009,-0.3013,-0.2995,-0.2962,-0.2881,-0.292,-0.2817,-0.2795,-0.2707,-0.2692,-0.2642,-0.2663,-0.2891,-0.2891,-0.2892,-0.2892,0,-0.2387,-0.2465,-0.2525,-0.2632,-0.266,-0.2685,-0.2782,-0.2809,-0.2885,-0.2914,-0.2924,-0.2989,-0.2964,-0.2954,-0.2911,-0.2865,-0.2752,-0.2765,-0.2654,-0.2619,-0.2497,-0.2525,-0.2451,-0.2384,-0.2643,-0.2641,-0.2639,0,-0.236,-0.2385,-0.2487,-0.2507,-0.2551,-0.2609,-0.2644,-0.2756,-0.2787,-0.2888,-0.2886,-0.2906,-0.2883,-0.2813,-0.2743,-0.266,-0.2657,-0.2508,-0.2499,-0.2468,-0.2484,-0.2503,-0.2454,-0.236,-0.2356,-0.2353,-0.235,0,-0.2287,-0.2318,-0.2361,-0.2407,-0.2445,-0.2495,-0.2556,-0.2586,-0.2701,-0.2737,-0.2768,-0.2766,-0.2726,-0.2606,-0.252,-0.2458,-0.2444,-0.2438,-0.2436,-0.228,-0.2268,-0.2199,-0.2419,-0.2322,-0.2324,-0.2327,-0.2328,-0.2329,-0.22,-0.2204,-0.2252,-0.2279,-0.2321,-0.2349,-0.2339,-0.2418,-0.2452,-0.2474,-0.2574,-0.2537,-0.2485,-0.2352,-0.2293,-0.2161,-0.2229,-0.2096,-0.2137,-0.2164,-0.2082,-0.2233,-0.2096,-0.2098,-0.2099,-0.21,-0.2101,0,-0.2082,-0.2099,-0.212,-0.2148,-0.213,-0.2204,-0.2244,-0.2208,-0.2187,-0.2257,-0.2256,-0.224,-0.2119,-0.2093,-0.1982,-0.1892,-0.1852,-0.1854,-0.1863,-0.1829,-0.1971,-0.1941,-0.1728,-0.1728,-0.1728,-0.1728,-0.1728,-0.1728,-0.2021,-0.1995,-0.201,-0.1941,-0.1949,-0.188,-0.1867,-0.1837,-0.1853,-0.1824,-0.1854,-0.1923,-0.1922,-0.2002,-0.1867,-0.1774,-0.1737,-0.1679,-0.1717,-0.1839,-0.1866,-0.1891,-0.1867,-0.1642,-0.1642,-0.1498,-0.1497,-0.1496]},{"header":{"parameterUnit":"m.s-1","parameterCategory":2,"la1":30.2991,"la2":30.254,"lo1":-89.0895,"lo2":-89.0444,"dy":0.0017,"dx":0.0017,"nx":28,"ny":28,"refTime":"2025-12-21T09:00:00:Z","depth":"0","parameterNumber":3,"parameterNumberName":"V-component_of_CURRENTS"},"data":[0,0,0,0,0,0,0,0,0,0,0,0,0,0,0,0,0,0,0,0,0,0,0,0,0,0,0,0,0,0,0,0,0,0,0,0,0,0,0,0,0,0,0,0,0,0,0,0,0,0,0,0,0,0,0,0,0,0,-0.0144,-0.0143,0,-0.0057,-0.0056,-0.0054,0.001,0.0011,0.0011,0.0011,0.0145,0.0148,0.0151,0,0,0,0,0,0,0,0,0,0,0,0,0,-0.0196,-0.0195,-0.0144,-0.0143,-0.0143,-0.0057,-0.0055,-0.0054,0.001,0.0011,0.0011,0.0012,0.0144,0.0147,0.0151,0,0,0,0,0,0,0,0,0,0,0,0,0,-0.0145,-0.0195,-0.0144,-0.0102,-0.0097,-0.0057,-0.0055,-0.0054,0.001,0.0011,0.0011,0.0012,0.0142,0.0147,0.0152,0.0171,0,0,0.0167,0.0169,0,0,0,0,0,0,0,0,-0.0148,-0.0143,-0.0109,-0.0105,-0.01,-0.0036,-0.0025,0.0023,0.001,-0.0028,0.0011,0.0012,0.0087,0.0096,0.0114,0.0177,0.0183,0.0167,0.017,0.0172,0.0173,0,0,0,0,0,0,0,-0.0152,-0.0146,-0.0107,-0.0108,-0.0102,-0.0067,-0.0059,-0.0015,0.0028,-0.0025,-0.002,-0.0015,0.009,0.0109,0.0118,0.0185,0.0167,0.0171,0.0174,0.0176,0.0286,0.0286,0,0,0,0,0,0,-0.0171,-0.015,-0.011,-0.0105,-0.0126,-0.0067,-0.0058,-0.0055,0.0027,0.0038,-0.0015,-0.0012,0.0101,0.0112,0.0123,0.0157,0.0172,0.0176,0.0179,0.0286,0.0286,0.0286,0,0,0,0,0,0,-0.0173,-0.0169,-0.0114,-0.0127,-0.0118,-0.0067,-0.0063,-0.0053,-0.0035,0.0033,0.0046,-0.0007,0.0102,0.0116,0.0162,0.0162,0.0179,0.0183,0.0286,0.0286,0.0286,0.022,0,0,0,0,0,0,-0.0174,-0.017,-0.0175,-0.0129,-0.0118,-0.01,-0.0064,-0.0052,-0.0033,-0.0028,0.0044,0.0057,0.0103,0.0154,0.0166,0.0169,0.0187,0.0286,0.0286,0.0286,0.0222,0.0218,0.0214,0,0,0,0,0,-0.0177,-0.0191,-0.0176,-0.0171,-0.0127,-0.0101,-0.0092,-0.0051,-0.0033,-0.0031,0.0022,0.0055,0.0163,0.0158,0.0172,0.0176,0.0286,0.0286,0.0286,0.0224,0.0219,0.0214,0,0,0,0,0,0,-0.0216,-0.0184,-0.0167,-0.0171,-0.0142,-0.0091,-0.0087,-0.0059,-0.0015,-0.0009,0.0057,0.0074,0.0113,0.0153,0.0145,0.0208,0.023,0.0233,0.0177,0.0173,0.0169,0.015,0.0191,0,0,0,0,0,-0.0228,-0.023,-0.0191,-0.0194,-0.0184,-0.0136,-0.0121,-0.0095,-0.0051,-0.0032,0.0019,0.0075,0.0125,0.0154,0.02,0.0235,0.0279,0.0247,0.0243,0.0239,0.0234,0.0302,0.0304,0.0287,0.0287,0.0287,0,0,-0.0243,-0.0227,-0.0227,-0.0202,-0.0176,-0.0169,-0.0125,-0.011,-0.0096,-0.0024,0.0009,0.006,0.013,0.017,0.0191,0.0204,0.0266,0.0239,0.0235,0.0232,0.0303,0.0304,0.0306,0.0287,0.0287,0.0287,0,0,-0.0281,-0.0261,-0.0278,-0.0259,-0.0232,-0.0199,-0.0199,-0.0153,-0.0124,-0.0088,-0.003,0.0022,0.0091,0.0146,0.0182,0.0184,0.0239,0.0195,0.0165,0.0232,0.0234,0.0236,0.0287,0.0295,0.0197,0.0196,0.0196,0,-0.0302,-0.0315,-0.0278,-0.0288,-0.0278,-0.0218,-0.0229,-0.0191,-0.0133,-0.0106,-0.0089,0.0028,0.0083,0.0148,0.0146,0.0176,0.0214,0.0176,0.0226,0.0229,0.0232,0.0285,0.0294,0.0193,0.0194,0.0194,0.0194,0,-0.035,-0.0358,-0.0367,-0.0357,-0.0339,-0.034,-0.0286,-0.0259,-0.0217,-0.0169,-0.0103,-0.0023,0.0049,0.0073,0.0111,0.0163,0.0182,0.0209,0.0234,0.023,0.0286,0.0296,0.0189,0.019,0.0191,0.0192,0,0,-0.0399,-0.0403,-0.0405,-0.0415,-0.0378,-0.037,-0.0342,-0.0296,-0.0271,-0.0203,-0.0161,-0.0072,-0.0021,0.0022,0.0084,0.014,0.0196,0.0174,0.0179,0.0217,0.0331,0.0367,0.0382,0.0229,0.0231,0.0232,0.0358,0,-0.0448,-0.0495,-0.0471,-0.0496,-0.0513,-0.0449,-0.0428,-0.0373,-0.0308,-0.0251,-0.015,-0.009,-0.004,-0.0007,0.0059,0.0163,0.0221,0.0159,0.0336,0.0341,0.0368,0.0395,0.0417,0.0533,0.0369,0.0371,0.0372,0,-0.0503,-0.0527,-0.0574,-0.0571,-0.0569,-0.0566,-0.0514,-0.0486,-0.0381,-0.033,-0.0241,-0.0158,-0.0057,-0.002,0.0158,0.0113,0.021,0.029,0.0298,0.0361,0.0397,0.0514,0.0559,0.0708,0.0389,0.0388,0.0386,0,-0.0566,-0.0592,-0.0634,-0.0635,-0.0621,-0.0617,-0.0596,-0.0512,-0.0483,-0.0375,-0.0335,-0.0199,-0.0127,0.0011,0.0182,0.017,0.0376,0.0389,0.0514,0.0517,0.0587,0.0594,0.0793,0.0511,0.0511,0.0511,0.051,0,-0.0629,-0.0659,-0.0671,-0.0695,-0.073,-0.0686,-0.0686,-0.0637,-0.0559,-0.0522,-0.0384,-0.0315,-0.0118,0.0031,0.0175,0.0383,0.0381,0.0516,0.0559,0.0564,0.0567,0.074,0.0789,0.0515,0.0514,0.0513,0.0512,0,-0.0693,-0.0701,-0.0752,-0.0762,-0.0766,-0.0789,-0.0766,-0.0755,-0.0669,-0.0614,-0.0584,-0.0396,-0.0196,0.0012,0.0251,0.0377,0.0664,0.0641,0.0625,0.0664,0.0901,0.0943,0.1171,0.1254,0.0794,0.0796,0.0797,0,-0.073,-0.0767,-0.0815,-0.0851,-0.086,-0.0881,-0.089,-0.0824,-0.08,-0.0657,-0.0631,-0.0426,-0.0257,0.0115,0.0373,0.0648,0.0759,0.0818,0.0803,0.0929,0.1009,0.1038,0.1092,0.087,0.0872,0.0874,0.0875,0,-0.0798,-0.0816,-0.0859,-0.0942,-0.0974,-0.1002,-0.1002,-0.1003,-0.0908,-0.0831,-0.0685,-0.0536,-0.0161,0.0176,0.0532,0.0697,0.0921,0.0857,0.101,0.1104,0.1129,0.1223,0.0758,0.0889,0.0888,0.0887,0.0886,0.0886,-0.0838,-0.089,-0.0952,-0.1024,-0.107,-0.1106,-0.112,-0.1087,-0.1039,-0.09,-0.0747,-0.049,-0.0,0.0519,0.0709,0.1099,0.1062,0.1211,0.1257,0.1279,0.1349,0.0902,0.1066,0.1065,0.1065,0.1065,0.1064,0,-0.0886,-0.0946,-0.1027,-0.1106,-0.1168,-0.1166,-0.1178,-0.1154,-0.1093,-0.092,-0.0742,-0.0206,0.0276,0.0721,0.1274,0.1486,0.1529,0.1593,0.1649,0.1689,0.1327,0.132,0.1521,0.1521,0.152,0.152,0.152,0.152,-0.0911,-0.1002,-0.1049,-0.1167,-0.1219,-0.1258,-0.1261,-0.1199,-0.1075,-0.0779,-0.0475,-0.0219,0.0424,0.1313,0.1822,0.187,0.204,0.2026,0.2122,0.1875,0.1843,0.1812,0.1821,0.2123,0.2124,0.247,0.2474,0.2476]}],[{"header":{"parameterUnit":"m.s-1","parameterCategory":2,"la1":30.2991,"la2":30.254,"lo1":-89.0895,"lo2":-89.0444,"dy":0.0017,"dx":0.0017,"nx":28,"ny":28,"refTime":"2025-12-21T09:00:00:Z","depth":"2","parameterNumber":2,"parameterNumberName":"U-component_of_CURRENTS"},"data":[0,0,0,0,0,0,0,0,0,0,0,0,0,0,0,0,0,0,0,0,0,0,0,0,0,0,0,0,0,0,0,0,0,0,0,0,0,0,0,0,0,0,0,0,0,0,0,0,0,0,0,0,0,0,0,0,0,0,-0.2198,-0.2199,0,-0.2239,-0.224,-0.224,-0.222,-0.2219,-0.2218,-0.2217,-0.22,-0.2201,-0.2201,0,0,0,0,0,0,0,0,0,0,0,0,0,-0.2114,-0.2115,-0.2198,-0.2199,-0.22,-0.2239,-0.224,-0.224,-0.222,-0.2219,-0.2218,-0.2217,-0.22,-0.2201,-0.2201,0,0,0,0,0,0,0,0,0,0,0,0,0,-0.215,-0.2116,-0.2198,-0.2196,-0.2197,-0.2239,-0.224,-0.224,-0.222,-0.2219,-0.2217,-0.2216,-0.22,-0.2201,-0.2201,-0.223,0,0,-0.2203,-0.2203,0,0,0,0,0,0,0,0,-0.2148,-0.2153,-0.2196,-0.2196,-0.2197,-0.2225,-0.2204,-0.2235,-0.222,-0.2209,-0.2217,-0.2216,-0.2206,-0.2206,-0.2214,-0.2229,-0.2229,-0.2203,-0.2203,-0.2203,-0.2203,0,0,0,0,0,0,0,-0.2146,-0.2151,-0.2212,-0.2197,-0.2197,-0.2197,-0.2201,-0.221,-0.2211,-0.221,-0.2209,-0.2217,-0.2205,-0.2213,-0.2213,-0.2228,-0.2203,-0.2203,-0.2204,-0.2204,-0.2278,-0.228,0,0,0,0,0,0,-0.2146,-0.2149,-0.2211,-0.2214,-0.2171,-0.22,-0.2204,-0.2215,-0.2212,-0.2212,-0.2218,-0.2216,-0.2213,-0.2213,-0.2212,-0.2256,-0.2203,-0.2204,-0.2204,-0.2277,-0.2279,-0.2281,0,0,0,0,0,0,-0.2145,-0.2152,-0.2209,-0.2184,-0.2191,-0.2203,-0.2216,-0.2217,-0.2224,-0.222,-0.2217,-0.2224,-0.2212,-0.2212,-0.2229,-0.2254,-0.2204,-0.2204,-0.2275,-0.2277,-0.228,-0.2336,0,0,0,0,0,0,-0.2142,-0.2151,-0.2157,-0.2184,-0.2193,-0.2241,-0.2218,-0.2219,-0.2232,-0.223,-0.2224,-0.2222,-0.2211,-0.2229,-0.223,-0.2254,-0.2205,-0.2273,-0.2276,-0.2279,-0.2332,-0.234,-0.2347,0,0,0,0,0,-0.2139,-0.2156,-0.2157,-0.2164,-0.2202,-0.2242,-0.2247,-0.2248,-0.2234,-0.2247,-0.2244,-0.2222,-0.2249,-0.2231,-0.2231,-0.2256,-0.2271,-0.2275,-0.2279,-0.2329,-0.2339,-0.2347,0,0,0,0,0,0,-0.2122,-0.2157,-0.2158,-0.2184,-0.2213,-0.2239,-0.225,-0.2254,-0.2263,-0.2256,-0.2243,-0.2242,-0.2267,-0.2259,-0.2238,-0.2289,-0.2257,-0.2261,-0.2295,-0.2304,-0.2311,-0.2304,-0.2205,0,0,0,0,0,-0.2123,-0.2141,-0.2178,-0.2196,-0.2212,-0.2231,-0.2245,-0.2253,-0.2268,-0.227,-0.227,-0.2273,-0.2287,-0.229,-0.23,-0.2328,-0.2306,-0.2346,-0.2353,-0.2359,-0.2355,-0.235,-0.2356,-0.2293,-0.2293,-0.2293,0,0,-0.2119,-0.2142,-0.215,-0.2193,-0.2211,-0.2248,-0.2236,-0.2265,-0.2294,-0.2268,-0.2297,-0.2299,-0.2301,-0.2333,-0.2344,-0.2325,-0.2368,-0.2364,-0.2369,-0.2362,-0.2354,-0.236,-0.2365,-0.2295,-0.2295,-0.2295,0,0,-0.213,-0.2144,-0.2167,-0.2198,-0.2237,-0.2258,-0.2269,-0.2305,-0.2314,-0.2352,-0.234,-0.2356,-0.2379,-0.2386,-0.2391,-0.2447,-0.241,-0.2454,-0.2483,-0.2478,-0.2483,-0.2486,-0.2471,-0.2473,-0.2456,-0.2456,-0.2456,0,-0.2123,-0.2159,-0.218,-0.2219,-0.2244,-0.2265,-0.2302,-0.2328,-0.2364,-0.2375,-0.2367,-0.2404,-0.2405,-0.2438,-0.246,-0.2463,-0.2448,-0.2447,-0.2486,-0.2489,-0.2492,-0.2475,-0.2477,-0.2459,-0.2459,-0.2458,-0.2458,0,-0.2158,-0.2189,-0.2207,-0.226,-0.2294,-0.2328,-0.2373,-0.2401,-0.2414,-0.2434,-0.2468,-0.2475,-0.249,-0.2504,-0.25,-0.2529,-0.2508,-0.2496,-0.2458,-0.2501,-0.2482,-0.2482,-0.2464,-0.2463,-0.2462,-0.2461,0,0,-0.2128,-0.2213,-0.2217,-0.2246,-0.2317,-0.2345,-0.2402,-0.2452,-0.2475,-0.2509,-0.2534,-0.2569,-0.256,-0.2566,-0.2564,-0.2565,-0.2579,-0.2542,-0.254,-0.2517,-0.2559,-0.2484,-0.2477,-0.257,-0.257,-0.2571,-0.2539,0,-0.2143,-0.2211,-0.2256,-0.2316,-0.2353,-0.24,-0.2449,-0.2497,-0.2527,-0.2558,-0.2571,-0.2593,-0.2589,-0.2592,-0.2598,-0.2585,-0.2581,-0.2588,-0.2528,-0.2526,-0.2446,-0.2475,-0.2294,-0.2245,-0.2539,-0.2539,-0.2539,0,-0.2154,-0.2199,-0.2262,-0.234,-0.2359,-0.2402,-0.2466,-0.2514,-0.257,-0.259,-0.2616,-0.2623,-0.2644,-0.2624,-0.2619,-0.2623,-0.2595,-0.2578,-0.2576,-0.2482,-0.2451,-0.225,-0.2234,-0.2538,-0.2538,-0.2538,-0.2538,0,-0.2106,-0.2197,-0.2241,-0.2271,-0.2368,-0.24,-0.2447,-0.2515,-0.2549,-0.2601,-0.2621,-0.2647,-0.265,-0.2637,-0.2612,-0.2616,-0.2587,-0.2584,-0.2488,-0.2483,-0.2303,-0.2281,-0.2565,-0.2565,-0.2565,-0.2565,-0.2565,0,-0.2096,-0.2127,-0.222,-0.2245,-0.2289,-0.237,-0.2417,-0.2468,-0.2538,-0.2563,-0.2621,-0.2634,-0.2652,-0.2641,-0.2617,-0.2549,-0.2588,-0.249,-0.2469,-0.232,-0.23,-0.2533,-0.2529,-0.2564,-0.2564,-0.2565,-0.2565,0,-0.2031,-0.2098,-0.2146,-0.2242,-0.2268,-0.2294,-0.2389,-0.2418,-0.25,-0.2534,-0.255,-0.2619,-0.2607,-0.2607,-0.2579,-0.2537,-0.249,-0.245,-0.2271,-0.2229,-0.239,-0.239,-0.2349,-0.2346,-0.2343,-0.2341,-0.234,0,-0.2003,-0.2022,-0.2111,-0.2129,-0.2169,-0.2227,-0.2261,-0.2371,-0.2402,-0.2509,-0.2508,-0.2541,-0.2521,-0.2472,-0.2409,-0.2341,-0.2413,-0.2135,-0.2111,-0.2384,-0.2368,-0.2372,-0.2376,-0.1899,-0.1894,-0.1889,-0.1886,0,-0.1933,-0.1962,-0.1996,-0.2035,-0.2071,-0.2115,-0.2175,-0.2201,-0.2316,-0.235,-0.2382,-0.2384,-0.2361,-0.2218,-0.2151,-0.2089,-0.2138,-0.2046,-0.2364,-0.1988,-0.1959,-0.1944,-0.1962,-0.1848,-0.1852,-0.1855,-0.1857,-0.1858,-0.1856,-0.1855,-0.1894,-0.1915,-0.1954,-0.1974,-0.1961,-0.2033,-0.2059,-0.2079,-0.2179,-0.2121,-0.2116,-0.1923,-0.183,-0.1762,-0.1906,-0.1817,-0.183,-0.1848,-0.1808,-0.1776,-0.1623,-0.1626,-0.1628,-0.163,-0.1631,0,-0.1747,-0.1756,-0.177,-0.1789,-0.1769,-0.1841,-0.1869,-0.1827,-0.1797,-0.1855,-0.1852,-0.1671,-0.159,-0.1597,-0.1438,-0.1409,-0.1396,-0.1346,-0.1331,-0.1369,-0.1403,-0.1341,-0.1032,-0.103,-0.1029,-0.1027,0,0,-0.169,-0.1656,-0.1661,-0.1589,-0.1597,-0.1528,-0.1509,-0.1468,-0.147,-0.1401,-0.1377,-0.1504,-0.1548,-0.1292,-0.1232,-0.1111,-0.1226,-0.1052,-0.1531,-0.1551,-0.1583,-0.167,-0.1616,0,0,0,0,0]},{"header":{"parameterUnit":"m.s-1","parameterCategory":2,"la1":30.2991,"la2":30.254,"lo1":-89.0895,"lo2":-89.0444,"dy":0.0017,"dx":0.0017,"nx":28,"ny":28,"refTime":"2025-12-21T09:00:00:Z","depth":"2","parameterNumber":3,"parameterNumberName":"V-component_of_CURRENTS"},"data":[0,0,0,0,0,0,0,0,0,0,0,0,0,0,0,0,0,0,0,0,0,0,0,0,0,0,0,0,0,0,0,0,0,0,0,0,0,0,0,0,0,0,0,0,0,0,0,0,0,0,0,0,0,0,0,0,0,0,-0.0193,-0.0192,0,-0.0119,-0.0118,-0.0117,-0.006,-0.006,-0.006,-0.0059,0.0059,0.0062,0.0065,0,0,0,0,0,0,0,0,0,0,0,0,0,-0.0232,-0.0232,-0.0193,-0.0192,-0.0191,-0.0119,-0.0118,-0.0117,-0.006,-0.006,-0.0059,-0.0059,0.0058,0.0062,0.0065,0,0,0,0,0,0,0,0,0,0,0,0,0,-0.0191,-0.0232,-0.0193,-0.0156,-0.0152,-0.0119,-0.0118,-0.0116,-0.006,-0.006,-0.0059,-0.0059,0.0057,0.0061,0.0065,0.0082,0,0,0.0079,0.008,0,0,0,0,0,0,0,0,-0.0193,-0.0189,-0.0162,-0.0158,-0.0154,-0.01,-0.0089,-0.0049,-0.0061,-0.0093,-0.0059,-0.0059,0.0008,0.0017,0.0032,0.0087,0.0092,0.0079,0.0081,0.0083,0.0084,0,0,0,0,0,0,0,-0.0196,-0.0192,-0.0161,-0.0161,-0.0157,-0.0125,-0.0119,-0.008,-0.0044,-0.009,-0.0086,-0.0082,0.0011,0.0027,0.0035,0.0094,0.0079,0.0083,0.0085,0.0087,0.018,0.018,0,0,0,0,0,0,-0.0213,-0.0195,-0.0164,-0.0159,-0.0175,-0.0126,-0.0118,-0.0116,-0.0045,-0.0034,-0.0082,-0.0079,0.002,0.003,0.0039,0.0067,0.0083,0.0087,0.009,0.018,0.018,0.018,0,0,0,0,0,0,-0.0214,-0.0211,-0.0167,-0.0177,-0.0169,-0.0126,-0.0124,-0.0115,-0.0099,-0.004,-0.0028,-0.0075,0.0021,0.0033,0.0073,0.0071,0.0089,0.0093,0.018,0.018,0.018,0.0118,0,0,0,0,0,0,-0.0216,-0.0212,-0.0217,-0.0178,-0.0169,-0.0156,-0.0124,-0.0114,-0.0098,-0.0093,-0.003,-0.0018,0.0022,0.0066,0.0077,0.0078,0.0096,0.018,0.018,0.018,0.012,0.0116,0.0112,0,0,0,0,0,-0.0217,-0.0231,-0.0218,-0.0214,-0.0178,-0.0157,-0.015,-0.0115,-0.0098,-0.0097,-0.005,-0.002,0.0073,0.007,0.0083,0.0084,0.018,0.018,0.018,0.0122,0.0117,0.0113,0,0,0,0,0,0,-0.0251,-0.0226,-0.021,-0.0215,-0.0192,-0.0149,-0.0146,-0.0122,-0.0084,-0.0078,-0.0019,-0.0004,0.0029,0.0064,0.0059,0.011,0.0131,0.0133,0.0083,0.0078,0.0074,0.006,0.01,0,0,0,0,0,-0.0262,-0.0264,-0.0233,-0.0236,-0.0229,-0.0188,-0.0175,-0.0153,-0.0115,-0.0098,-0.0054,-0.0005,0.0038,0.0063,0.0102,0.0132,0.0172,0.0141,0.0137,0.0133,0.013,0.019,0.0192,0.0179,0.0179,0.0179,0,0,-0.0275,-0.0262,-0.0263,-0.0243,-0.0221,-0.0219,-0.0179,-0.0167,-0.0158,-0.0091,-0.0065,-0.0019,0.0041,0.0074,0.0092,0.0104,0.0157,0.0133,0.0129,0.0128,0.019,0.0192,0.0193,0.0179,0.0179,0.0179,0,0,-0.031,-0.0292,-0.0309,-0.0295,-0.0273,-0.0245,-0.0246,-0.0207,-0.0183,-0.0153,-0.0102,-0.0056,0.0003,0.005,0.0082,0.008,0.0131,0.0089,0.0062,0.012,0.0122,0.0124,0.017,0.0177,0.009,0.0089,0.0089,0,-0.0328,-0.0343,-0.031,-0.0322,-0.0316,-0.0263,-0.0277,-0.0244,-0.0196,-0.0173,-0.0155,-0.0055,-0.0006,0.0048,0.0047,0.0071,0.0107,0.0074,0.0115,0.0117,0.012,0.0168,0.0176,0.0086,0.0087,0.0087,0.0087,0,-0.0374,-0.0385,-0.0393,-0.0389,-0.0376,-0.0379,-0.0335,-0.0313,-0.0275,-0.0235,-0.0178,-0.0106,-0.0044,-0.0022,0.0013,0.0058,0.0077,0.0099,0.0124,0.0118,0.0169,0.0178,0.0082,0.0083,0.0084,0.0085,0,0,-0.0418,-0.0427,-0.0429,-0.0442,-0.0413,-0.0409,-0.0389,-0.0353,-0.0334,-0.0273,-0.0239,-0.0159,-0.0112,-0.0073,-0.0017,0.0035,0.0086,0.0068,0.0072,0.0109,0.0207,0.0231,0.0244,0.0115,0.0116,0.0117,0.0231,0,-0.0464,-0.0513,-0.0494,-0.0523,-0.0542,-0.0488,-0.0474,-0.0429,-0.0373,-0.0325,-0.0233,-0.018,-0.0132,-0.0101,-0.0041,0.0057,0.0109,0.0052,0.0212,0.0217,0.0236,0.0256,0.0218,0.0318,0.0241,0.0243,0.0244,0,-0.0516,-0.0542,-0.059,-0.0596,-0.0597,-0.0598,-0.0559,-0.0539,-0.0449,-0.0403,-0.0323,-0.0247,-0.0153,-0.0117,0.0047,0.0007,0.0096,0.0171,0.0178,0.0229,0.0259,0.0315,0.0339,0.026,0.0259,0.0258,0.0257,0,-0.0572,-0.0604,-0.0648,-0.0651,-0.0647,-0.0648,-0.0633,-0.0564,-0.0542,-0.0446,-0.0411,-0.0287,-0.022,-0.0092,0.0066,0.0058,0.0245,0.0258,0.0364,0.0367,0.0382,0.0383,0.0368,0.0368,0.0367,0.0367,0.0367,0,-0.0632,-0.0663,-0.068,-0.0706,-0.0744,-0.0711,-0.0718,-0.0678,-0.0612,-0.0585,-0.0458,-0.0399,-0.0211,-0.0077,0.0058,0.0245,0.0245,0.0366,0.0403,0.0359,0.0357,0.0343,0.0338,0.0371,0.037,0.037,0.0369,0,-0.0688,-0.07,-0.0753,-0.077,-0.0777,-0.0803,-0.0792,-0.0787,-0.0714,-0.0671,-0.0643,-0.0475,-0.0293,-0.01,0.0121,0.0235,0.0409,0.0472,0.0402,0.0429,0.0491,0.0482,0.0602,0.0604,0.0605,0.0607,0.0608,0,-0.0722,-0.0759,-0.0812,-0.0847,-0.086,-0.0886,-0.09,-0.0848,-0.0832,-0.0714,-0.0694,-0.0509,-0.0363,-0.0023,0.0211,0.0461,0.0462,0.0561,0.0543,0.0493,0.0518,0.0506,0.0495,0.0538,0.0539,0.0539,0.0539,0,-0.0784,-0.0803,-0.0847,-0.0928,-0.0964,-0.0997,-0.1005,-0.101,-0.0936,-0.0873,-0.0751,-0.0623,-0.0291,-0.0011,0.0311,0.045,0.0519,0.0577,0.0565,0.0478,0.0441,0.0462,0.0452,0.0543,0.0543,0.0542,0.0542,0.0542,-0.082,-0.0869,-0.093,-0.1001,-0.105,-0.1091,-0.1109,-0.1088,-0.1054,-0.0939,-0.0812,-0.0593,-0.0318,0.0144,0.0374,0.0587,0.0586,0.0635,0.063,0.0626,0.0592,0.056,0.0677,0.0677,0.0678,0.0678,0.0678,0,-0.0863,-0.0919,-0.0997,-0.1077,-0.1138,-0.1143,-0.1163,-0.1143,-0.1097,-0.0956,-0.0808,-0.05,-0.0176,0.0113,0.0452,0.0653,0.0634,0.0681,0.0614,0.0609,0.0605,0.0567,0.0647,0.0648,0.0648,0.0649,0,0,-0.0886,-0.097,-0.1014,-0.1127,-0.118,-0.1225,-0.1232,-0.1178,-0.1073,-0.0924,-0.0756,-0.0524,-0.0169,0.006,0.0316,0.0493,0.0498,0.0508,0.0512,0.0399,0.0393,0.0559,0.0494,0,0,0,0,0]}],[{"header":{"parameterUnit":"m.s-1","parameterCategory":2,"la1":30.2991,"la2":30.254,"lo1":-89.0895,"lo2":-89.0444,"dy":0.0017,"dx":0.0017,"nx":28,"ny":28,"refTime":"2025-12-21T09:00:00:Z","depth":"4","parameterNumber":2,"parameterNumberName":"U-component_of_CURRENTS"},"data":[0,0,0,0,0,0,0,0,0,0,0,0,0,0,0,0,0,0,0,0,0,0,0,0,0,0,0,0,0,0,0,0,0,0,0,0,0,0,0,0,0,0,0,0,0,0,0,0,0,0,0,0,0,0,0,0,0,0,-0.152,-0.1521,0,-0.1578,-0.1579,-0.1579,-0.1609,-0.1609,-0.1609,-0.161,-0.1653,-0.1654,-0.1655,0,0,0,0,0,0,0,0,0,0,0,0,0,-0.1439,-0.144,-0.152,-0.1521,-0.1522,-0.1578,-0.1579,-0.158,-0.1609,-0.1609,-0.1609,-0.161,-0.1653,-0.1654,-0.1655,0,0,0,0,0,0,0,0,0,0,0,0,0,-0.1482,-0.144,-0.152,-0.1545,-0.1548,-0.1578,-0.1579,-0.158,-0.1609,-0.1609,-0.161,-0.161,-0.1652,-0.1654,-0.1655,-0.1659,0,0,-0.166,-0.166,0,0,0,0,0,0,0,0,-0.1479,-0.1484,-0.154,-0.1543,-0.1546,-0.1588,-0.1566,-0.1606,-0.1609,-0.1584,-0.161,-0.161,-0.1631,-0.1634,-0.1642,-0.1661,-0.1663,-0.166,-0.1661,-0.1661,-0.1662,0,0,0,0,0,0,0,-0.1476,-0.1482,-0.1542,-0.1541,-0.1545,-0.1554,-0.156,-0.1574,-0.1604,-0.1586,-0.1589,-0.1598,-0.1632,-0.1641,-0.1643,-0.1664,-0.166,-0.1661,-0.1662,-0.1663,-0.176,-0.1762,0,0,0,0,0,0,-0.1472,-0.1479,-0.154,-0.1544,-0.1514,-0.1556,-0.1562,-0.1573,-0.1604,-0.1609,-0.1598,-0.1599,-0.1638,-0.1642,-0.1645,-0.1719,-0.1661,-0.1663,-0.1664,-0.1758,-0.1761,-0.1762,0,0,0,0,0,0,-0.147,-0.1477,-0.1537,-0.1514,-0.1522,-0.1557,-0.1569,-0.1574,-0.1607,-0.1613,-0.1618,-0.1628,-0.1638,-0.1643,-0.1684,-0.1718,-0.1663,-0.1665,-0.1756,-0.1759,-0.1761,-0.1824,0,0,0,0,0,0,-0.1467,-0.1476,-0.1493,-0.1514,-0.1524,-0.1573,-0.1569,-0.1575,-0.1612,-0.1615,-0.164,-0.1643,-0.1639,-0.1682,-0.1686,-0.1719,-0.1666,-0.1754,-0.1758,-0.1761,-0.182,-0.1828,-0.1836,0,0,0,0,0,-0.1464,-0.1484,-0.1494,-0.1502,-0.1543,-0.1575,-0.1581,-0.1605,-0.1613,-0.1634,-0.1655,-0.1644,-0.1705,-0.1685,-0.1689,-0.1724,-0.1753,-0.1757,-0.176,-0.1816,-0.1827,-0.1835,0,0,0,0,0,0,-0.146,-0.149,-0.1501,-0.153,-0.1559,-0.1581,-0.1605,-0.162,-0.1654,-0.1663,-0.1665,-0.167,-0.1719,-0.1714,-0.1692,-0.1762,-0.1727,-0.1732,-0.1768,-0.1778,-0.1786,-0.1777,-0.1667,0,0,0,0,0,-0.1466,-0.1489,-0.1518,-0.1544,-0.1561,-0.1588,-0.1608,-0.1627,-0.1653,-0.167,-0.1689,-0.1711,-0.1734,-0.1751,-0.1768,-0.1806,-0.1787,-0.1831,-0.1839,-0.1846,-0.1843,-0.1846,-0.1853,-0.1775,-0.1775,-0.1775,0,0,-0.1473,-0.1492,-0.1507,-0.1546,-0.1569,-0.1602,-0.1601,-0.1642,-0.1676,-0.1668,-0.1727,-0.1741,-0.1751,-0.1795,-0.1816,-0.1799,-0.1861,-0.1851,-0.1857,-0.1849,-0.185,-0.1858,-0.1864,-0.1777,-0.1777,-0.1777,0,0,-0.1488,-0.1515,-0.1538,-0.1566,-0.1609,-0.1628,-0.1646,-0.1687,-0.1714,-0.1767,-0.1771,-0.1806,-0.1847,-0.1858,-0.1868,-0.193,-0.1902,-0.1943,-0.1978,-0.1982,-0.1987,-0.1992,-0.1982,-0.1985,-0.1947,-0.1948,-0.1948,0,-0.1497,-0.1526,-0.1551,-0.1582,-0.161,-0.1643,-0.1678,-0.1712,-0.1765,-0.1789,-0.1796,-0.1861,-0.1874,-0.1915,-0.1942,-0.1947,-0.1939,-0.194,-0.199,-0.1995,-0.1999,-0.1987,-0.1989,-0.1951,-0.1951,-0.195,-0.195,0,-0.1521,-0.1558,-0.1576,-0.1624,-0.166,-0.1696,-0.1743,-0.1788,-0.1826,-0.1853,-0.1915,-0.1935,-0.1968,-0.1987,-0.1986,-0.2029,-0.2011,-0.1998,-0.1962,-0.201,-0.1995,-0.1997,-0.1956,-0.1955,-0.1954,-0.1953,0,0,-0.15,-0.1577,-0.1586,-0.1616,-0.1686,-0.1713,-0.178,-0.1837,-0.1877,-0.1933,-0.1977,-0.203,-0.2039,-0.205,-0.2058,-0.2069,-0.2098,-0.2053,-0.2052,-0.2035,-0.21,-0.196,-0.1948,-0.2097,-0.2097,-0.2098,-0.2078,0,-0.1511,-0.1568,-0.161,-0.1674,-0.1706,-0.1765,-0.1819,-0.188,-0.1931,-0.1983,-0.2016,-0.206,-0.2064,-0.2086,-0.2101,-0.2101,-0.2106,-0.2103,-0.2062,-0.206,-0.1923,-0.1947,-0.21,-0.208,-0.208,-0.208,-0.208,0,-0.1511,-0.1552,-0.1613,-0.1694,-0.1715,-0.1765,-0.185,-0.1905,-0.1983,-0.2022,-0.2072,-0.2095,-0.2137,-0.2125,-0.2143,-0.2144,-0.2128,-0.2118,-0.2117,-0.1962,-0.1923,-0.2021,-0.2083,-0.2083,-0.2083,-0.2083,-0.2082,0,-0.1461,-0.1549,-0.1597,-0.1627,-0.1726,-0.1773,-0.1831,-0.1918,-0.1962,-0.2046,-0.2078,-0.2129,-0.2153,-0.2155,-0.2147,-0.2152,-0.2142,-0.2141,-0.1996,-0.1986,-0.209,-0.2085,-0.2137,-0.2137,-0.2137,-0.2137,-0.2137,0,-0.1435,-0.1476,-0.1583,-0.1608,-0.1669,-0.1754,-0.1823,-0.1888,-0.1974,-0.2008,-0.2091,-0.2108,-0.2163,-0.2165,-0.2152,-0.2069,-0.2144,-0.1994,-0.1969,-0.2118,-0.2117,-0.2091,-0.2086,-0.2136,-0.2136,-0.2137,-0.2137,0,-0.1363,-0.1437,-0.1495,-0.1608,-0.1646,-0.169,-0.1807,-0.1844,-0.1946,-0.1992,-0.2019,-0.21,-0.2099,-0.2122,-0.2116,-0.2052,-0.2003,-0.1951,-0.2102,-0.2088,-0.1846,-0.1845,-0.179,-0.1785,-0.178,-0.1777,-0.1774,0,-0.1328,-0.1352,-0.1472,-0.1503,-0.1558,-0.164,-0.1686,-0.181,-0.1841,-0.1959,-0.1954,-0.2006,-0.2036,-0.1912,-0.1961,-0.1912,-0.1888,-0.1851,-0.1855,-0.1828,-0.181,-0.1816,-0.182,-0.1767,-0.1766,-0.1764,-0.1763,0,-0.125,-0.1305,-0.1349,-0.1412,-0.1471,-0.1527,-0.1603,-0.1613,-0.1736,-0.1847,-0.1831,-0.1827,-0.1817,-0.1809,-0.1776,-0.1747,-0.1873,-0.1805,-0.1814,-0.1818,-0.1799,-0.1787,-0.1797,-0.1748,-0.175,-0.1752,-0.1753,0,-0.1187,-0.1195,-0.1257,-0.1297,-0.1364,-0.1379,-0.1446,-0.1476,-0.1526,-0.1659,-0.1644,-0.1706,-0.1787,-0.1722,-0.1695,-0.1651,-0.1632,-0.1579,-0.1599,-0.1617,-0.1569,-0.1521,-0.1352,0,0,0,0,0,-0.1112,-0.1103,-0.1133,-0.117,-0.1229,-0.1265,-0.1365,-0.1434,-0.1553,-0.149,-0.1564,-0.1547,-0.1521,-0.156,-0.1476,-0.1621,-0.1639,-0.1518,-0.159,-0.1664,-0.1682,-0.1642,0,0,0,0,0,0,-0.1061,-0.1082,-0.1087,-0.1046,-0.1044,-0.1095,-0.1152,-0.1243,-0.122,-0.1348,-0.1337,-0.1438,-0.1433,-0.1531,-0.1436,-0.1446,-0.1456,-0.1566,-0.1562,-0.1654,-0.167,-0.1684,-0.165,0,0,0,0,0]},{"header":{"parameterUnit":"m.s-1","parameterCategory":2,"la1":30.2991,"la2":30.254,"lo1":-89.0895,"lo2":-89.0444,"dy":0.0017,"dx":0.0017,"nx":28,"ny":28,"refTime":"2025-12-21T09:00:00:Z","depth":"4","parameterNumber":3,"parameterNumberName":"V-component_of_CURRENTS"},"data":[0,0,0,0,0,0,0,0,0,0,0,0,0,0,0,0,0,0,0,0,0,0,0,0,0,0,0,0,0,0,0,0,0,0,0,0,0,0,0,0,0,0,0,0,0,0,0,0,0,0,0,0,0,0,0,0,0,0,-0.0159,-0.0159,0,-0.0114,-0.0113,-0.0112,-0.0075,-0.0075,-0.0075,-0.0075,0.0013,0.0015,0.0017,0,0,0,0,0,0,0,0,0,0,0,0,0,-0.0178,-0.0177,-0.0159,-0.0159,-0.0158,-0.0114,-0.0113,-0.0112,-0.0075,-0.0075,-0.0075,-0.0074,0.0013,0.0015,0.0018,0,0,0,0,0,0,0,0,0,0,0,0,0,-0.0153,-0.0177,-0.0159,-0.0136,-0.0133,-0.0114,-0.0113,-0.0112,-0.0075,-0.0075,-0.0075,-0.0074,0.0012,0.0015,0.0018,0.0031,0,0,0.0028,0.0029,0,0,0,0,0,0,0,0,-0.0155,-0.0152,-0.014,-0.0137,-0.0135,-0.0101,-0.0087,-0.0063,-0.0075,-0.0096,-0.0075,-0.0074,-0.0023,-0.0017,-0.0007,0.0035,0.0039,0.0028,0.003,0.0031,0.0032,0,0,0,0,0,0,0,-0.0156,-0.0154,-0.0139,-0.0139,-0.0136,-0.0115,-0.0112,-0.0082,-0.0059,-0.0094,-0.0091,-0.0089,-0.0021,-0.001,-0.0004,0.004,0.0028,0.0031,0.0033,0.0034,0.0099,0.0099,0,0,0,0,0,0,-0.0168,-0.0156,-0.0141,-0.0138,-0.0146,-0.0116,-0.0111,-0.0111,-0.006,-0.0053,-0.009,-0.0088,-0.0016,-0.0008,-0.0001,0.0015,0.0031,0.0034,0.0036,0.01,0.0099,0.0099,0,0,0,0,0,0,-0.0168,-0.0167,-0.0143,-0.0147,-0.0143,-0.0116,-0.0116,-0.011,-0.0101,-0.0058,-0.005,-0.0086,-0.0015,-0.0006,0.0022,0.0019,0.0036,0.0039,0.01,0.01,0.0099,0.0048,0,0,0,0,0,0,-0.0169,-0.0168,-0.0173,-0.0148,-0.0143,-0.0139,-0.0116,-0.011,-0.0101,-0.0098,-0.0053,-0.0044,-0.0014,0.0017,0.0025,0.0023,0.0041,0.01,0.01,0.0099,0.005,0.0046,0.0043,0,0,0,0,0,-0.017,-0.0182,-0.0174,-0.0172,-0.0151,-0.014,-0.0135,-0.0113,-0.0102,-0.0103,-0.0069,-0.0046,0.0021,0.002,0.0029,0.0028,0.01,0.01,0.0099,0.0052,0.0047,0.0043,0,0,0,0,0,0,-0.0192,-0.0178,-0.0169,-0.0176,-0.0162,-0.0134,-0.0135,-0.0118,-0.0093,-0.0089,-0.0046,-0.0035,-0.0013,0.0014,0.0012,0.0046,0.0064,0.0065,0.0024,0.002,0.0017,0.0007,0.0044,0,0,0,0,0,-0.0201,-0.0206,-0.0187,-0.0192,-0.0188,-0.0162,-0.0155,-0.0141,-0.0115,-0.0104,-0.0072,-0.0037,-0.0007,0.0011,0.004,0.006,0.0093,0.0065,0.0061,0.0058,0.0057,0.0106,0.0107,0.0098,0.0098,0.0098,0,0,-0.0211,-0.0204,-0.0206,-0.0197,-0.0184,-0.0187,-0.0157,-0.0152,-0.015,-0.0098,-0.0085,-0.005,-0.0005,0.0016,0.0029,0.0039,0.0076,0.0058,0.0054,0.0055,0.0106,0.0107,0.0107,0.0098,0.0098,0.0098,0,0,-0.0237,-0.0228,-0.0243,-0.0236,-0.0225,-0.0208,-0.021,-0.0185,-0.0171,-0.0153,-0.0115,-0.0081,-0.004,-0.0006,0.0017,0.0012,0.0054,0.0018,-0.0004,0.0043,0.0045,0.0046,0.0081,0.0086,0.0019,0.0018,0.0018,0,-0.0251,-0.0267,-0.0245,-0.0258,-0.0258,-0.0222,-0.0237,-0.0217,-0.0186,-0.0172,-0.0158,-0.0086,-0.0049,-0.0012,-0.0014,0.0004,0.0034,0.0007,0.0039,0.0041,0.0043,0.0079,0.0086,0.0016,0.0016,0.0016,0.0017,0,-0.0288,-0.0301,-0.0309,-0.0313,-0.0309,-0.0316,-0.0289,-0.0277,-0.0253,-0.0226,-0.0188,-0.0132,-0.0088,-0.0072,-0.0043,-0.0009,0.0006,0.0026,0.0048,0.0041,0.0079,0.0087,0.0012,0.0013,0.0014,0.0015,0,0,-0.0316,-0.0334,-0.0338,-0.0353,-0.0341,-0.0342,-0.0336,-0.0317,-0.031,-0.0266,-0.0247,-0.0186,-0.0148,-0.012,-0.0075,-0.0031,0.0011,-0.0,0.0004,0.0031,0.0109,0.0095,0.0102,0.0037,0.0038,0.0039,0.0126,0,-0.0353,-0.0397,-0.039,-0.0424,-0.0443,-0.0411,-0.0409,-0.0384,-0.0347,-0.0318,-0.0247,-0.0211,-0.0169,-0.0145,-0.0094,-0.0013,0.0029,-0.0015,0.0114,0.0118,0.0105,0.011,0.0043,0.0131,0.0133,0.0134,0.0135,0,-0.0392,-0.0417,-0.0465,-0.0484,-0.0489,-0.05,-0.0486,-0.0479,-0.0421,-0.0389,-0.0331,-0.0272,-0.0197,-0.0163,-0.0028,-0.0058,0.0016,0.008,0.0085,0.0096,0.0118,0.0143,0.0149,0.0148,0.0147,0.0146,0.0146,0,-0.0427,-0.0467,-0.051,-0.0518,-0.0532,-0.0543,-0.0543,-0.0503,-0.0496,-0.0431,-0.0407,-0.031,-0.0258,-0.0149,-0.0017,-0.002,0.0131,0.0147,0.0204,0.0204,0.0213,0.021,0.0237,0.0237,0.0236,0.0236,0.0236,0,-0.0466,-0.0501,-0.0535,-0.0559,-0.0605,-0.0592,-0.0616,-0.0594,-0.0557,-0.0544,-0.045,-0.0407,-0.0252,-0.0144,-0.0028,0.011,0.0127,0.0201,0.0227,0.0188,0.0182,0.0218,0.0214,0.0239,0.0239,0.0238,0.0238,0,-0.0496,-0.052,-0.0575,-0.0611,-0.0627,-0.0658,-0.0678,-0.0683,-0.0641,-0.0618,-0.0598,-0.0474,-0.0331,-0.0175,0.0009,0.0089,0.0227,0.027,0.0209,0.0231,0.0268,0.0261,0.0339,0.0339,0.034,0.034,0.034,0,-0.0514,-0.0548,-0.062,-0.0659,-0.0682,-0.0724,-0.0748,-0.0729,-0.0724,-0.0653,-0.0638,-0.0504,-0.0406,-0.0151,0.0005,0.022,0.0247,0.0307,0.0293,0.0262,0.028,0.0273,0.0266,0.034,0.034,0.0341,0.0341,0,-0.0546,-0.0577,-0.0621,-0.0706,-0.0755,-0.08,-0.0826,-0.0829,-0.0793,-0.0761,-0.0653,-0.0513,-0.0354,-0.0155,0.0011,0.0164,0.0263,0.031,0.031,0.0298,0.0264,0.0281,0.0273,0.0341,0.0341,0.0341,0.0341,0,-0.0565,-0.0605,-0.067,-0.0739,-0.0808,-0.0848,-0.0862,-0.084,-0.0826,-0.0738,-0.0705,-0.0519,-0.041,-0.0183,-0.0028,0.0119,0.0153,0.0188,0.0196,0.0197,0.0128,0.0062,0.0101,0,0,0,0,0,-0.0575,-0.0623,-0.0696,-0.077,-0.0838,-0.087,-0.0899,-0.0894,-0.0863,-0.0792,-0.0743,-0.0587,-0.0342,-0.0229,-0.0082,-0.0037,0.0164,0.0135,0.0205,0.0346,0.0345,0.0287,0,0,0,0,0,0,-0.0584,-0.0654,-0.0694,-0.0777,-0.0828,-0.0889,-0.0907,-0.0888,-0.0834,-0.0783,-0.0645,-0.0566,-0.0321,-0.0421,-0.0082,-0.0037,0.0022,0.0256,0.0258,0.0347,0.0346,0.0345,0.0285,0,0,0,0,0]}]]